Location: Franzen
(48.6167°N, 15.3833°E)
Time: 14:35:36
(UTC+00:00)

Transit 2A Rocket - Pass Details

Date: 03 August 2021
Orbit: 586 x 916 km, 66.7° (Epoch: 23 September)

Event Time Altitude Azimuth Distance (km) Brightness Sun altitude
Rises 22:47:06 0° 310° (NW) 3,330 8.9 -24.0°
Reaches altitude 10° 22:50:35 10° 287° (WNW) 2,458 7.8 -24.1°
Maximum altitude 22:53:34 15° 255° (WSW) 2,186 7.2 -24.1°
Enters shadow 22:54:02 15° 250° (WSW) 2,199 7.2 -24.1°
